AI7R Weather Reports


time (UTC)temp
C
wind
direction
speed
KPH
gust
KPH
rain 1hr
cm
rain 24hr
cm
rain mn
cm
humidity
%
barometer
mb
20260902074506 17 360 0.0 0.0 0.00 0.00 0.00 75 1016.3
20260902073007 17 19 0.0 0.0 0.00 0.00 0.00 74 1016.3
20260902071506 17 360 0.0 0.0 0.00 0.00 0.00 74 1016.2
20260902064506 18 360 0.0 0.0 0.00 0.00 0.00 74 1016.2
20260902063007 18 360 0.0 0.0 0.00 0.00 0.00 73 1016.4
20260902060008 18 360 0.0 0.0 0.00 0.00 0.00 72 1016.4
20260902054506 18 360 0.0 0.0 0.00 0.00 0.00 71 1016.4
20260902053007 18 360 0.0 0.0 0.00 0.00 0.00 71 1016.4
20260902051506 18 360 0.0 0.0 0.00 0.00 0.00 71 1016.4
20260902050009 18 360 0.0 0.0 0.00 0.00 0.00 71 1016.3
20260902044506 18 360 0.0 0.0 0.00 0.00 0.00 71 1016.2
20260902043007 18 360 0.0 0.0 0.00 0.00 0.00 69 1016.2
20260902041506 19 360 0.0 0.0 0.00 0.00 0.00 68 1016.2
20260902040008 19 360 1.6 6.4 0.00 0.00 0.00 67 1016.0
20260902034505 19 360 1.6 4.8 0.00 0.00 0.00 67 1015.9
20260902033007 19 360 0.0 3.2 0.00 0.00 0.00 66 1015.6
20260902031505 19 323 1.6 4.8 0.00 0.00 0.00 65 1015.4
20260902024506 20 269 0.0 3.2 0.00 0.00 0.00 61 1014.9
20260902023007 21 360 0.0 3.2 0.00 0.00 0.00 59 1014.8
20260902021505 21 360 0.0 3.2 0.00 0.00 0.00 56 1014.6
20260902014508 23 292 1.6 8.0 0.00 0.00 0.00 51 1014.5
20260902011505 24 360 1.6 11.3 0.00 0.00 0.00 43 1014.6
20260902010008 25 360 1.6 9.7 0.00 0.00 0.00 40 1014.5
20260902004506 25 360 3.2 14.5 0.00 0.00 0.00 39 1014.6
20260902003007 25 360 3.2 17.7 0.00 0.00 0.00 39 1014.7
20260902001506 26 360 1.6 14.5 0.00 0.00 0.00 38 1014.6
20260902000008 26 360 3.2 12.9 0.00 0.00 0.00 42 1014.6
20260901234506 25 360 3.2 9.7 0.00 0.00 0.00 42 1014.6
20260901233007 25 360 1.6 11.3 0.00 0.00 0.00 42 1014.7
20260901231506 26 360 1.6 8.0 0.00 0.00 0.00 41 1014.8
20260901230009 27 360 3.2 11.3 0.00 0.00 0.00 37 1014.8
20260901224505 27 360 3.2 14.5 0.00 0.00 0.00 38 1014.8
20260901221505 26 360 1.6 12.9 0.00 0.00 0.00 43 1015.2
20260901220008 27 360 4.8 12.9 0.00 0.00 0.00 42 1015.3
20260901214505 26 360 3.2 16.1 0.00 0.00 0.00 43 1015.4
20260901213008 26 360 3.2 14.5 0.00 0.00 0.00 45 1015.6
20260901210008 26 202 3.2 9.7 0.00 0.00 0.00 44 1015.8
20260901204505 26 360 3.2 16.1 0.00 0.00 0.00 44 1016.0
20260901200008 26 360 3.2 12.9 0.00 0.00 0.00 45 1016.4
20260901194506 26 360 3.2 17.7 0.00 0.00 0.00 45 1016.6
20260901193006 26 360 3.2 12.9 0.00 0.00 0.00 47 1016.6
20260901191505 26 360 3.2 9.7 0.00 0.00 0.00 45 1016.8
20260901190008 25 186 3.2 11.3 0.00 0.00 0.00 48 1016.8
20260901184506 25 360 3.2 11.3 0.00 0.00 0.00 44 1017.0
20260901183006 25 174 1.6 8.0 0.00 0.00 0.00 45 1017.0
20260901181506 25 360 1.6 6.4 0.00 0.00 0.00 48 1017.0
20260901174504 24 220 1.6 8.0 0.00 0.00 0.00 51 1017.2
20260901173006 24 360 1.6 11.3 0.00 0.00 0.00 51 1017.2
20260901171504 23 360 1.6 9.7 0.00 0.00 0.00 51 1017.1
20260901170007 23 157 0.0 3.2 0.00 0.00 0.00 52 1017.0
20260901163005 22 360 0.0 6.4 0.00 0.00 0.00 57 1016.8
20260901160007 20 360 0.0 6.4 0.00 0.00 0.00 61 1016.7
20260901154504 20 179 0.0 3.2 0.00 0.03 0.00 61 1016.6
20260901151504 18 167 0.0 0.0 0.00 0.03 0.00 68 1016.8
20260901150007 18 360 0.0 0.0 0.00 0.03 0.00 68 1016.6
20260901144504 17 360 0.0 0.0 0.00 0.05 0.00 67 1016.4
20260901141504 16 360 0.0 0.0 0.00 0.05 0.00 72 1016.6
20260901133005 15 83 0.0 0.0 0.00 0.05 0.00 73 1016.2
20260901124505 14 360 0.0 0.0 0.00 0.05 0.00 73 1015.8
20260901123006 15 360 0.0 0.0 0.00 0.05 0.00 72 1015.8
20260901121506 15 360 0.0 0.0 0.00 0.05 0.00 72 1015.8
20260901114504 15 360 0.0 0.0 0.00 0.05 0.00 73 1015.4
20260901113005 15 79 0.0 1.6 0.00 0.05 0.00 73 1015.3
20260901111504 15 77 0.0 0.0 0.00 0.05 0.00 72 1015.4
20260901110007 15 77 0.0 0.0 0.00 0.05 0.00 72 1015.4
20260901104504 15 360 0.0 0.0 0.00 0.05 0.00 73 1015.4
20260901103005 15 77 0.0 0.0 0.00 0.05 0.00 73 1015.6
20260901100007 15 77 0.0 0.0 0.00 0.05 0.00 73 1015.7
20260901094504 15 77 0.0 0.0 0.00 0.20 0.00 74 1015.7
20260901093005 15 77 0.0 0.0 0.00 0.20 0.00 76 1015.8
20260901091504 15 77 0.0 0.0 0.00 0.20 0.00 74 1015.7
20260901090006 15 77 0.0 0.0 0.00 0.20 0.00 75 1015.7
20260901083005 15 76 0.0 0.0 0.00 0.28 0.00 76 1015.7
20260901081504 15 76 0.0 0.0 0.00 0.28 0.00 77 1015.8
20260901080006 15 76 0.0 0.0 0.00 0.28 0.00 77 1015.8